Regional Weather Roundup
Issued by NWS

Home | Current Version | Previous Version | Graphics & Text | Print | Product List | Glossary On
Versions: 1 2 3 4 5 6 7 8 9 10 11 12 13 14 15 16 17 18 19 20 21 22 23 24 25 26 27 28 29 30 31 32 33 34 35 36 37 38 39 40 41 42 43 44 45 46 47 48 49 50
000
ASUS45 KBOU 021007
RWRCO

WEATHER ROUNDUP FOR COLORADO
NATIONAL WEATHER SERVICE DENVER/BOULDER CO
400 AM MDT TUE SEP 02 2014

NOTE: "FAIR" INDICATES FEW OR NO CLOUDS BELOW 12000 FEET WITH NO
SIGNIFICANT WEATHER AND/OR OBSTRUCTIONS TO VISIBILITY.

COZ001>005-013-030-031-021100-
...NORTHWEST COLORADO...

CITY           SKY/WX    TMP DP  RH WIND       PRES   REMARKS
CRAIG          CLEAR     40  37  89 CALM      30.20R
HAYDEN         CLEAR     45  36  70 E9        30.20S
MEEKER         CLEAR     43  36  76 E3        30.20S
MOUNT WERNER   NOT AVBL
STEAMBOAT SPGS CLEAR     41  37  84 CALM      30.23R
WALDEN         CLEAR     36  30  80 CALM      30.27S
$$

COZ006>008-011-021100-
...WEST CENTRAL VALLEYS...

CITY           SKY/WX    TMP DP  RH WIND       PRES   REMARKS
GRAND JUNCTION CLEAR     58  39  49 E6        30.07R
MONTROSE       CLEAR     53  39  59 SE7       30.16S
EAGLE          CLEAR     45  36  70 E5        30.25S
RIFLE          CLEAR     51  39  63 SE3       30.15R
DELTA          CLEAR     57  38  48 NE7       30.13S
NUCLA          CLEAR     55  36  47 E6        30.18S
$$

COZ017>023-064>068-021100-
...SOUTHWEST COLORADO...

CITY           SKY/WX    TMP DP  RH WIND       PRES   REMARKS
DURANGO        CLEAR     53  34  48 NW3       30.19R
CORTEZ         CLEAR     48  39  71 E3        30.15R
PAGOSA SPRINGS CLEAR     50  33  51 CALM      30.27S
TELLURIDE      CLEAR     50  34  53 SE8       30.38S
WOLF CREEK PAS NOT AVBL
$$

COZ009-010-012-014-032>034-037-058>063-021100-
...CENTRAL COLORADO...

CITY           SKY/WX    TMP DP  RH WIND       PRES   REMARKS
ASPEN          CLEAR     45  31  58 SW7       30.27S
BUENA VISTA    CLEAR     45  32  60 NW5       30.28F
COPPER MTN     CLEAR     45  25  45 SW12G18   30.53S
BERTHOUD PASS  FAIR      36  36 100 W20G25    30.54F
COTTONWOOD PAS CLEAR     55  23  28 W10G18    30.38F
GUNNISON       CLEAR     39  30  70 CALM      30.33S
KREMMLING      CLEAR     36  32  87 CALM      30.29S
LEADVILLE      CLEAR     34  28  79 N3        30.39S
MONARCH PASS   CLEAR     43  28  56 W25       30.62F
SALIDA         CLEAR     47  33  58 CALM      30.34S
SUNLIGHT       CLEAR     45  32  61 CALM      30.45F
WILKERSON PASS NOT AVBL
$$

COZ069>075-021100-
...SAN LUIS VALLEY/SANGRE DE CRISTO MOUNTAINS...

CITY           SKY/WX    TMP DP  RH WIND       PRES   REMARKS
ALAMOSA        PTCLDY    41  32  70 W5        30.26R
LA VETA PASS   NOT AVBL
SAGUACHE       NOT AVBL
$$

COZ035-036-038>040-021100-
...NORTHERN COLORADO FRONT RANGE...

CITY           SKY/WX    TMP DP  RH WIND       PRES   REMARKS
DENVER INTL AP CLEAR     52  43  71 W6        30.15F
DMNS CITY PARK   N/A     52  45  77 SE1       30.14F
AURORA         CLEAR     49  43  77 S2        30.16F
FRONT RANGE AP CLEAR     50  45  81 SW6       30.16S
ERIE MUNI ARPT CLEAR     48  45  89 S3        30.14F
BOULDER MUN AP CLEAR     54  43  66 CALM      30.14F
CENTENNIAL     CLEAR     52  42  69 S3        30.17F
BROOMFIELD     CLEAR     54  43  66 CALM      30.16F
FORT COLLINS   CLEAR     54  46  76 CALM      30.15S
LONGMONT       CLEAR     48  44  85 W3        30.15F
$$

COZ041-046-047-076>085-087-088-021100-
...PIKES PEAK/PALMER DIVIDE AND SOUTHERN FOOTHILLS...

CITY           SKY/WX    TMP DP  RH WIND       PRES   REMARKS
COLO. SPRINGS  MOCLDY    59  51  75 N3        30.19S
A. F. ACADEMY  CLEAR     49  42  79 N10       30.20F
ELLICOTT       CLOUDY    58  50  75 N7        30.17S
FALCON         CLOUDY    53  49  87 NW3       30.23S
FORT CARSON    CLOUDY    57  46  67 NW10      30.16S
LIMON          CLEAR     51  47  86 NW6       30.14R
MONUMENT HILL  CLEAR     45  41  87 SW9       30.22F
TRINIDAD       CLEAR     58  43  57 W9        30.13S
$$

COZ042>045-048>051-090-091-021100-
...NORTHEAST COLORADO...

CITY           SKY/WX    TMP DP  RH WIND       PRES   REMARKS
GREELEY ARPT   CLEAR     46  39  76 CALM      30.14S
AKRON          CLEAR     50  48  93 MISG      30.10S
BURLINGTON     CLEAR     56  53  90 SE7       30.08S
WRAY             N/A     52  52 100 CALM      30.06F
STERLING       CLEAR     48  48 100 N3        30.07F
HOLYOKE        CLEAR     54  50  87 W3        30.06F
FORT MORGAN    CLEAR     47  44  88 NW7       30.12S
$$

COZ086-089-092>099-021100-
...SOUTHEAST COLORADO...

CITY           SKY/WX    TMP DP  RH WIND       PRES   REMARKS
PUEBLO         MOCLDY    63  52  67 NE6       30.09S
LA JUNTA       CLEAR     60  56  86 CALM      30.05R
LAMAR          CLOUDY    63  59  87 CALM      30.02S
SPRINGFIELD      N/A     64  62  93 CALM      30.06S
$$



USA.gov is the U.S. government's official web portal to all federal, state and local government web resources and services.